Météo par heure à Jamousoukro

Ce jour, 26 Juillet, Lundi

Heure Température Précipitation Vent Pression Humidité
00:00 +23°C° 0 mm 1 m/s 754 mmHg 91%
01:00 +23°C° 0 mm 1 m/s 754 mmHg 92%
02:00 +23°C° 0 mm 1 m/s 754 mmHg 93%
03:00 +21°C° 0 mm 0 m/s 754 mmHg 93%
04:00 +21°C° 0 mm 0 m/s 754 mmHg 92%
05:00 +23°C° 0 mm 1 m/s 754 mmHg 90%
06:00 +24°C° 0 mm 1 m/s 754 mmHg 89%
07:00 +25°C° 0 mm 1 m/s 755 mmHg 85%
08:00 +26°C° 0 mm 1 m/s 755 mmHg 82%
09:00 +27°C° 0 mm 1 m/s 755 mmHg 78%
10:00 +27°C° 0 mm 1 m/s 755 mmHg 75%
11:00 +28°C° 0 mm 2 m/s 755 mmHg 73%
12:00 +28°C° 0 mm 2 m/s 755 mmHg 70%
13:00 +28°C° 0 mm 2 m/s 754 mmHg 69%
14:00 +29°C° 0 mm 2 m/s 754 mmHg 68%
15:00 +29°C° 0 mm 3 m/s 753 mmHg 67%
16:00 +28°C° 0 mm 2 m/s 753 mmHg 72%
17:00 +27°C° 0 mm 2 m/s 753 mmHg 76%
18:00 +26°C° 0 mm 2 m/s 754 mmHg 81%
19:00 +25°C° 0 mm 1 m/s 754 mmHg 84%
20:00 +24°C° 0 mm 1 m/s 754 mmHg 86%
21:00 +24°C° 0 mm 1 m/s 755 mmHg 89%
22:00 +24°C° 0 mm 1 m/s 754 mmHg 89%
23:00 +23°C° 0 mm 1 m/s 754 mmHg 90%

Demain, 27 Juillet, Mardi

Heure Température Précipitation Vent Pression Humidité
00:00 +23°C° 0 mm 1 m/s 754 mmHg 90%
01:00 +23°C° 0 mm 1 m/s 754 mmHg 89%
02:00 +21°C° 0 mm 0 m/s 754 mmHg 87%
03:00 +22°C° 0 mm 0 m/s 754 mmHg 86%
04:00 +22°C° 0 mm 0 m/s 754 mmHg 85%
05:00 +22°C° 0 mm 0 m/s 754 mmHg 85%
06:00 +24°C° 0 mm 1 m/s 755 mmHg 84%
07:00 +25°C° 0 mm 1 m/s 755 mmHg 80%
08:00 +26°C° 0 mm 1 m/s 755 mmHg 76%
09:00 +27°C° 0 mm 1 m/s 756 mmHg 72%
10:00 +28°C° 0 mm 2 m/s 756 mmHg 68%
11:00 +28°C° 0 mm 2 m/s 755 mmHg 64%
12:00 +29°C° 0 mm 2 m/s 755 mmHg 61%
13:00 +29°C° 0 mm 2 m/s 754 mmHg 62%
14:00 +29°C° 0 mm 2 m/s 754 mmHg 63%
15:00 +29°C° 0 mm 2 m/s 753 mmHg 65%
16:00 +27°C° 0 mm 2 m/s 754 mmHg 70%
17:00 +26°C° 0 mm 1 m/s 754 mmHg 75%
18:00 +25°C° 0 mm 1 m/s 754 mmHg 79%
19:00 +25°C° 0 mm 1 m/s 754 mmHg 81%
20:00 +25°C° 0 mm 1 m/s 754 mmHg 83%
21:00 +24°C° 0 mm 1 m/s 754 mmHg 84%
22:00 +24°C° 0 mm 1 m/s 754 mmHg 86%
23:00 +22°C° 0 mm 0 m/s 754 mmHg 87%

Après-demain, 28 Juillet, Mercredi

Heure Température Précipitation Vent Pression Humidité
00:00 +22°C° 0 mm 0 m/s 754 mmHg 88%
01:00 +22°C° 0 mm 0 m/s 754 mmHg 88%
02:00 +22°C° 0 mm 0 m/s 754 mmHg 88%
03:00 +22°C° 0 mm 0 m/s 754 mmHg 88%
04:00 +22°C° 0 mm 0 m/s 754 mmHg 89%
05:00 +21°C° 0 mm 0 m/s 754 mmHg 90%
06:00 +21°C° 0 mm 0 m/s 754 mmHg 91%
07:00 +23°C° 0 mm 0 m/s 755 mmHg 82%
08:00 +27°C° 0 mm 1 m/s 755 mmHg 74%
09:00 +29°C° 0 mm 2 m/s 756 mmHg 65%
10:00 +30°C° 0 mm 2 m/s 755 mmHg 60%
11:00 +31°C° 0 mm 2 m/s 755 mmHg 55%
12:00 +32°C° 0 mm 2 m/s 754 mmHg 51%
13:00 +32°C° 0 mm 2 m/s 754 mmHg 49%
14:00 +33°C° 0 mm 3 m/s 753 mmHg 47%
15:00 +33°C° 0 mm 3 m/s 753 mmHg 45%
16:00 +30°C° 0 mm 2 m/s 753 mmHg 54%
17:00 +29°C° 0 mm 2 m/s 753 mmHg 63%
18:00 +27°C° 0 mm 2 m/s 753 mmHg 72%
19:00 +26°C° 0 mm 1 m/s 754 mmHg 78%
20:00 +25°C° 0 mm 1 m/s 754 mmHg 84%
21:00 +24°C° 0 mm 1 m/s 755 mmHg 89%
22:00 +24°C° 0 mm 1 m/s 755 mmHg 91%
23:00 +24°C° 0 mm 1 m/s 755 mmHg 92%

29 Juillet, Jeudi

Heure Température Précipitation Vent Pression Humidité
00:00 +24°C° 0 mm 1 m/s 755 mmHg 94%
01:00 +23°C° 0 mm 1 m/s 754 mmHg 94%
02:00 +23°C° 0 mm 1 m/s 754 mmHg 95%
03:00 +23°C° 0 mm 1 m/s 754 mmHg 95%
04:00 +23°C° 0 mm 1 m/s 754 mmHg 95%
05:00 +23°C° 0 mm 1 m/s 755 mmHg 95%
06:00 +23°C° 0 mm 1 m/s 755 mmHg 94%
07:00 +25°C° 0 mm 1 m/s 755 mmHg 85%
08:00 +27°C° 0 mm 1 m/s 756 mmHg 75%
09:00 +30°C° 0 mm 2 m/s 756 mmHg 66%
10:00 +31°C° 0.1 mm 2 m/s 755 mmHg 61%
11:00 +32°C° 0.1 mm 2 m/s 755 mmHg 56%
12:00 +34°C° 0.1 mm 2 m/s 754 mmHg 51%
13:00 +34°C° 0.1 mm 2 m/s 753 mmHg 53%
14:00 +32°C° 0.1 mm 2 m/s 753 mmHg 56%
15:00 +32°C° 0.1 mm 2 m/s 752 mmHg 59%
16:00 +30°C° 0.3 mm 2 m/s 752 mmHg 67%
17:00 +28°C° 0.3 mm 2 m/s 753 mmHg 76%
18:00 +26°C° 0.3 mm 2 m/s 753 mmHg 84%
19:00 +26°C° 0 mm 1 m/s 753 mmHg 87%
20:00 +25°C° 0 mm 1 m/s 754 mmHg 90%
21:00 +24°C° 0 mm 1 m/s 754 mmHg 93%
22:00 +24°C° 0 mm 1 m/s 754 mmHg 94%
23:00 +24°C° 0 mm 1 m/s 754 mmHg 95%

30 Juillet, Vendredi

Heure Température Précipitation Vent Pression Humidité
00:00 +24°C° 0 mm 1 m/s 754 mmHg 96%
01:00 +24°C° 0 mm 1 m/s 754 mmHg 96%
02:00 +24°C° 0 mm 1 m/s 754 mmHg 97%
03:00 +24°C° 0 mm 1 m/s 754 mmHg 97%
04:00 +22°C° 0.1 mm 0 m/s 754 mmHg 97%
05:00 +22°C° 0.1 mm 0 m/s 754 mmHg 96%
06:00 +22°C° 0.1 mm 0 m/s 754 mmHg 96%
07:00 +25°C° 0.5 mm 1 m/s 755 mmHg 91%
08:00 +27°C° 0.5 mm 1 m/s 755 mmHg 86%
09:00 +28°C° 0.5 mm 1 m/s 755 mmHg 82%
10:00 +28°C° 1.3 mm 1 m/s 755 mmHg 81%
11:00 +28°C° 1.3 mm 2 m/s 755 mmHg 81%
12:00 +29°C° 1.3 mm 2 m/s 754 mmHg 81%
13:00 +28°C° 1.3 mm 2 m/s 754 mmHg 82%
14:00 +28°C° 1.3 mm 2 m/s 753 mmHg 83%
15:00 +28°C° 1.3 mm 2 m/s 753 mmHg 84%
16:00 +27°C° 0.5 mm 2 m/s 753 mmHg 87%
17:00 +26°C° 0.5 mm 2 m/s 753 mmHg 90%
18:00 +25°C° 0.5 mm 2 m/s 753 mmHg 93%
19:00 +25°C° 0 mm 1 m/s 754 mmHg 94%
20:00 +25°C° 0 mm 1 m/s 754 mmHg 96%
21:00 +24°C° 0 mm 1 m/s 755 mmHg 97%
22:00 +24°C° 0.1 mm 1 m/s 755 mmHg 97%
23:00 +24°C° 0.1 mm 1 m/s 755 mmHg 97%

31 Juillet, Samedi

Heure Température Précipitation Vent Pression Humidité
00:00 +24°C° 0.1 mm 1 m/s 755 mmHg 97%
01:00 +24°C° 0.1 mm 1 m/s 754 mmHg 97%
02:00 +24°C° 0.1 mm 1 m/s 754 mmHg 98%
03:00 +24°C° 0.1 mm 1 m/s 754 mmHg 98%
04:00 +22°C° 0.1 mm 0 m/s 754 mmHg 98%
05:00 +22°C° 0.1 mm 0 m/s 755 mmHg 97%
06:00 +22°C° 0.1 mm 0 m/s 755 mmHg 97%
07:00 +25°C° 0.3 mm 1 m/s 755 mmHg 92%
08:00 +27°C° 0.3 mm 1 m/s 756 mmHg 87%
09:00 +28°C° 0.3 mm 2 m/s 756 mmHg 82%
10:00 +28°C° 0.7 mm 2 m/s 756 mmHg 80%
11:00 +29°C° 0.7 mm 2 m/s 755 mmHg 78%
12:00 +29°C° 0.7 mm 2 m/s 755 mmHg 75%
13:00 +29°C° 0.5 mm 2 m/s 754 mmHg 74%
14:00 +30°C° 0.5 mm 2 m/s 754 mmHg 72%
15:00 +30°C° 0.5 mm 3 m/s 753 mmHg 70%
16:00 +29°C° 0.1 mm 2 m/s 754 mmHg 74%
17:00 +28°C° 0.1 mm 2 m/s 754 mmHg 79%
18:00 +26°C° 0.1 mm 2 m/s 754 mmHg 83%
19:00 +26°C° 0 mm 1 m/s 755 mmHg 86%
20:00 +25°C° 0 mm 1 m/s 755 mmHg 90%
21:00 +24°C° 0 mm 1 m/s 756 mmHg 94%
22:00 +24°C° 0 mm 1 m/s 756 mmHg 95%
23:00 +24°C° 0 mm 1 m/s 756 mmHg 96%
Voir plus

Nous avons besoin de votre consentement

Meteoprog et ses fournisseurs de services peuvent stocker et accéder à des données personnelles telles que des cookies, des identifiants d'appareils ou d'autres technologies similaires sur votre appareil et traiter ces données pour personnaliser le contenu et les publicités, ainsi que pour fournir des fonctionnalités de médias sociaux et analyser le trafic.

  • Stocker et/ou accéder à des informations sur votre appareil

    Des cookies, des identifiants d'appareils ou d'autres informations peuvent être stockés ou accessibles sur votre appareil aux fins indiquées ci-dessus.

  • Annonces et contenus personnalisés, mesure des annonces et des contenus, connaissance de l'audience et développement de produits

    Les annonces et le contenu peuvent être personnalisés en fonction d'un profil. D'autres données peuvent être ajoutées pour mieux personnaliser les annonces et le contenu. Les performances des publicités et du contenu peuvent être mesurées. Il est possible d'obtenir des informations sur le public qui a vu les publicités et le contenu. Ces données peuvent être utilisées pour développer ou améliorer l'expérience de l'utilisateur, les systèmes et les logiciels.

En cliquant sur "J'accepte", vous autorisez l'utilisation de cookies, des identifiants d'appareils, des balises web ou d'autres technologies similaires. Vos paramètres peuvent être modifiés dans le navigateur de votre appareil.

Dans certains cas, des intérêts légitimes peuvent être invoqués plutôt qu'un consentement. Vous pouvez en savoir plus à ce sujet dans notre Politique de confidentialité et de cookies.